This demonstration page uses our WeatherBlox Daily Observations layout. Learn more.

Left ArrowRight Arrow

30.21309, -93.2044

Hourly Observations for May 31, 2022

Temp ( °F °C ) Dew Point ( °F °C ) Humidity (%) Winds ( mph kmh ) Pressure ( in mb ) Visibility ( mi km ) Precip ( " mm )
12:15 am 00:15 Partly Cloudy 77 24.8 73 22.8 89 89 SE 8 13 29.93 1014 10 16 0.00 0.00
12:35 am 00:35 Clear 77 25 73 23 89 89 SSE 9 15 29.92 1013 10 16 0.00 0.00
12:55 am 00:55 Clear 76 24.7 73 22.9 90 90 SSE 7 11 29.92 1013 10 16 0.00 0.00
1:15 am 01:15 Partly Cloudy 77 24.8 74 23.1 90 90 SE 8 13 29.92 1013 10 16 0.00 0.00
1:35 am 01:35 Partly Cloudy 76 24.7 74 23.1 91 91 SSE 9 15 29.92 1013 10 16 0.00 0.00
1:55 am 01:55 Clear 76 24.7 74 23.1 91 91 SSE 9 15 29.92 1013 10 16 0.00 0.00
2:15 am 02:15 Clear 76 24.5 73 23 91 91 SE 8 13 29.91 1013 10 16 0.00 0.00
2:35 am 02:35 Partly Cloudy 76 24.4 74 23.1 92 92 SE 5 7 29.91 1013 10 16 0.00 0.00
2:55 am 02:55 Mostly Cloudy 76 24.2 73 23 93 93 SE 6 9 29.91 1013 10 16 0.00 0.00
3:15 am 03:15 Mostly Cloudy 76 24.4 74 23.2 93 93 SE 6 9 29.91 1013 10 16 0.00 0.00
3:35 am 03:35 Partly Cloudy 76 24.5 74 23.2 92 92 SE 7 11 29.91 1013 10 16 0.00 0.00
3:55 am 03:55 Clear 76 24.6 74 23.2 92 92 SE 8 13 29.91 1013 10 16 0.00 0.00
4:15 am 04:15 Partly Cloudy 76 24.6 74 23.1 91 91 SE 7 11 29.90 1013 10 16 0.00 0.00
4:35 am 04:35 Partly Cloudy 76 24.5 73 23 91 91 SSE 8 13 29.91 1013 10 16 0.00 0.00
4:55 am 04:55 Partly Cloudy 76 24.4 74 23.1 92 92 SSE 8 13 29.91 1013 10 16 0.00 0.00
5:15 am 05:15 Mostly Cloudy 76 24.4 73 23 92 92 SE 8 13 29.91 1013 10 16 0.00 0.00
5:35 am 05:35 Partly Cloudy 75 24 73 22.8 93 93 SE 6 9 29.91 1013 10 16 0.00 0.00
6:00 am 06:00 Mostly Clear 75 24 73 23 94 94 SE 6 9 29.91 1013 10 16 0.00 0.00
6:50 am 06:50 Mostly Sunny 75 24 73 23 94 94 ESE 8 13 29.92 1013 10 16 0.00 0.00
7:45 am 07:45 Mostly Sunny 79 26 75 24 89 89 SE 12 19 29.93 1014 10 16 0.00 0.00
8:50 am 08:50 Mostly Cloudy 82 28 75 24 79 79 SSE 14 22 29.95 1014 10 16 0.00 0.00
9:47 am 09:47 Mostly Cloudy 86 30 73 23 66 66 SE 15 24 29.95 1014 10 16 0.00 0.00
10:52 am 10:52 Mostly Cloudy 86 30 73 23 66 66 S 13 20 29.96 1015 10 16 0.00 0.00
11:45 am 11:45 Mostly Cloudy 88 31 73 23 62 62 SSE 12 19 29.97 1015 10 16 0.00 0.00
12:55 pm 12:55 Mostly Cloudy 91 33 72 22 52 52 SSE 15 24 29.96 1015 10 16 0.00 0.00
1:45 pm 13:45 Mostly Cloudy 90 32 72 22 55 55 SSE 13 20 29.95 1014 10 16 0.00 0.00
2:45 pm 14:45 Partly Cloudy 90 32 73 23 59 59 SSE 14 22 29.94 1014 10 16 0.00 0.00
3:53 pm 15:53 Partly Cloudy 90 32 73 23 59 59 S 14 22 29.93 1014 10 16 0.00 0.00
4:50 pm 16:50 Partly Cloudy 90 32 72 22 55 55 S 10 17 29.92 1013 10 16 0.00 0.00
5:55 pm 17:55 Partly Cloudy 86 30 73 23 66 66 S 10 17 29.92 1013 10 16 0.00 0.00
6:48 pm 18:48 Partly Cloudy 82 28 75 24 79 79 SSE 6 9 29.92 1013 10 16 0.00 0.00
7:46 pm 19:46 Partly Cloudy 82 28 75 24 79 79 SSE 7 11 29.93 1014 10 16 0.00 0.00
8:52 pm 20:52 Mostly Clear 79 26 73 23 84 84 SSE 8 13 29.95 1014 10 16 0.00 0.00
9:50 pm 21:50 Mostly Clear 79 26 73 23 84 84 SSE 7 11 29.96 1015 10 16 0.00 0.00
10:15 pm 22:15 Clear 77 24.9 74 23.2 90 90 SE 7 11 29.96 1015 10 16 0.00 0.00
10:35 pm 22:35 Clear 77 25 74 23.2 90 90 SE 7 11 29.96 1015 10 16 0.00 0.00
10:55 pm 22:55 Clear 77 25.1 74 23.4 90 90 SE 6 9 29.97 1015 10 16 0.00 0.00
11:15 pm 23:15 Clear 77 25.1 74 23.3 90 90 SE 7 11 29.97 1015 10 16 0.00 0.00
11:35 pm 23:35 Clear 77 24.9 74 23.3 91 91 SSE 7 11 29.97 1015 10 16 0.00 0.00
11:55 pm 23:55 Clear 76 24.5 73 23 91 91 SSE 6 9 29.97 1015 10 16 0.00 0.00

Powered by AerisWeather